GW5584 Weather Reports


time (UTC)temp
C
wind
direction
speed
KPH
gust
KPH
rain 1hr
cm
rain 24hr
cm
rain mn
cm
humidity
%
barometer
mb
20260505153221 15 303 9.7 9.7 0.00 0.89 0.89 89 1008.3
20260505152718 15 311 0.0 9.7 0.00 0.89 0.89 87 1008.1
20260505152214 15 348 3.2 8.0 0.00 0.89 0.89 86 1007.9
20260505151709 15 329 0.0 4.8 0.00 0.89 0.89 88 1007.8
20260505151206 15 339 3.2 6.4 0.00 0.89 0.89 87 1007.6
20260505150702 15 230 0.0 6.4 0.00 0.89 0.89 86 1007.7
20260505150200 15 302 0.0 3.2 0.00 0.89 0.89 89 1007.4
20260505140628 15 136 4.8 4.8 0.05 0.89 0.89 92 1007.6
20260505140125 15 121 4.8 4.8 0.00 0.86 0.86 93 1007.7
20260505124543 15 110 3.2 3.2 0.05 0.81 0.81 96 1007.4
20260505124039 15 313 1.6 6.4 0.05 0.81 0.81 96 1007.5
20260505123536 15 121 1.6 3.2 0.05 0.81 0.81 96 1007.3
20260505123033 15 300 1.6 3.2 0.05 0.81 0.81 96 1007.5
20260505122530 14 353 0.0 3.2 0.05 0.81 0.81 96 1007.0
20260505122026 14 89 0.0 3.2 0.05 0.79 0.79 96 1007.0
20260505121522 14 62 1.6 3.2 0.05 0.79 0.79 96 1007.2
20260505121019 14 29 0.0 1.6 0.05 0.79 0.79 96 1007.2
20260505120516 14 350 0.0 6.4 0.05 0.79 0.79 96 1007.1
20260505120011 14 49 0.0 1.6 0.05 0.76 0.76 96 1007.2
20260505115506 14 97 3.2 3.2 0.05 0.76 0.76 96 1007.0
20260505115004 14 307 1.6 3.2 0.05 0.76 0.76 96 1007.3
20260505114501 14 348 1.6 3.2 0.05 0.74 0.74 96 1007.1
20260505113957 14 285 1.6 3.2 0.05 0.74 0.74 96 1007.1
20260505113453 14 350 1.6 3.2 0.05 0.74 0.74 96 1007.1
20260505112949 14 351 1.6 3.2 0.05 0.74 0.74 96 1007.1
20260505112442 14 217 0.0 3.2 0.13 0.74 0.74 96 1007.1
20260505111938 14 32 0.0 3.2 0.13 0.71 0.71 96 1006.7
20260505111438 14 330 1.6 3.2 0.05 0.71 0.71 96 1006.7
20260505110934 14 353 4.8 4.8 0.05 0.71 0.71 96 1006.6
20260505110431 14 0 3.2 3.2 0.13 0.71 0.71 96 1006.8
20260505101902 15 343 3.2 3.2 0.13 0.61 0.61 96 1006.6
20260505101357 15 214 0.0 4.8 0.13 0.61 0.61 96 1006.4
20260505100853 15 150 3.2 3.2 0.13 0.61 0.61 96 1006.7
20260505100349 15 347 3.2 3.2 0.13 0.58 0.58 96 1006.6
20260505095845 15 358 3.2 4.8 0.13 0.56 0.56 96 1006.4
20260505095343 15 154 3.2 4.8 0.13 0.56 0.56 96 1006.2
20260505094839 15 138 3.2 3.2 0.13 0.56 0.56 96 1006.1
20260505094336 15 146 6.4 9.7 0.13 0.53 0.53 96 1006.1
20260505093831 15 151 6.4 11.3 0.13 0.53 0.53 96 1006.0
20260505093329 15 152 3.2 6.4 0.13 0.51 0.51 96 1005.8
20260505092826 15 153 6.4 8.0 0.18 0.51 0.51 96 1005.7
20260505092324 15 160 6.4 6.4 0.18 0.48 0.48 96 1005.9
20260505091821 15 178 3.2 4.8 0.13 0.46 0.46 96 1006.1
20260505091319 15 126 4.8 6.4 0.13 0.46 0.46 96 1006.5
20260505090817 15 138 8.0 8.0 0.18 0.46 0.46 96 1006.7
20260505090315 15 136 3.2 4.8 0.18 0.43 0.43 96 1007.3
20260505085812 15 142 0.0 3.2 0.18 0.43 0.43 96 1007.2
20260505085310 15 140 1.6 1.6 0.18 0.41 0.41 96 1007.6
20260505084807 15 230 0.0 0.0 0.18 0.38 0.38 96 1007.4
20260505084306 15 83 3.2 3.2 0.18 0.38 0.38 96 1007.5
20260505083802 15 338 3.2 3.2 0.18 0.36 0.36 95 1007.4
20260505083259 15 261 0.0 1.6 0.18 0.33 0.33 95 1007.2
20260505082755 15 140 3.2 3.2 0.18 0.33 0.33 95 1007.0
20260505082253 15 112 1.6 4.8 0.18 0.30 0.30 95 1007.1
20260505081748 15 23 1.6 3.2 0.18 0.28 0.28 95 1007.6
20260505081246 15 41 3.2 3.2 0.23 0.28 0.28 95 1007.6
20260505080743 15 202 0.0 3.2 0.18 0.25 0.25 94 1007.9
20260505080238 15 55 0.0 4.8 0.13 0.23 0.23 94 1008.1
20260505075734 15 231 0.0 3.2 0.18 0.23 0.23 94 1008.3
20260505075232 15 228 1.6 8.0 0.13 0.20 0.20 94 1008.2
20260505074729 15 109 0.0 3.2 0.13 0.20 0.20 94 1008.4
20260505074226 15 180 1.6 3.2 0.13 0.18 0.18 93 1007.9
20260505073723 15 170 3.2 4.8 0.13 0.18 0.18 93 1007.8
20260505073221 15 171 1.6 4.8 0.18 0.15 0.15 93 1008.1
20260505072717 15 240 3.2 3.2 0.23 0.15 0.15 92 1007.9
20260505072213 15 116 3.2 6.4 0.23 0.13 0.13 92 1008.1
20260505071709 15 233 0.0 8.0 0.18 0.10 0.10 92 1008.6
20260505071207 15 222 1.6 3.2 0.23 0.10 0.10 91 1007.6
20260505070704 16 251 0.0 1.6 0.30 0.08 0.08 88 1007.6
20260505070200 16 238 3.2 3.2 0.30 0.05 0.05 85 1007.8
20260505065656 16 166 0.0 4.8 0.13 0.03 0.03 83 1007.8
20260505065153 17 180 4.8 8.0 0.00 0.00 0.00 79 1007.5
20260505064650 17 163 6.4 8.0 0.00 0.00 0.00 76 1007.3
20260505064148 17 157 3.2 4.8 0.00 0.00 0.00 74 1007.2
20260505063645 17 180 3.2 4.8 0.00 0.00 0.00 73 1007.1
20260505063141 17 129 6.4 9.7 0.00 0.00 0.00 72 1006.9
20260505062637 17 164 1.6 6.4 0.00 0.00 0.00 72 1007.0
20260505062135 17 128 4.8 4.8 0.00 0.00 0.00 72 1007.0
20260505061632 17 168 6.4 9.7 0.00 0.00 0.00 71 1007.0
20260505061130 18 139 8.0 8.0 0.00 0.00 0.00 71 1007.3
20260505060627 18 149 4.8 9.7 0.00 0.00 0.00 71 1007.4
20260505060124 18 156 4.8 9.7 0.00 0.00 0.00 71 1007.5
20260505055619 18 91 4.8 6.4 0.00 0.00 0.00 71 1007.6
20260505055116 18 112 4.8 6.4 0.00 0.00 0.00 71 1007.5
20260505054613 17 135 6.4 8.0 0.00 0.00 0.00 71 1007.5
20260505054112 17 166 3.2 6.4 0.00 0.00 0.00 71 1007.6
20260505053608 17 125 3.2 8.0 0.00 0.00 0.00 71 1007.5
20260505053105 17 132 4.8 4.8 0.00 0.00 0.00 71 1007.6
20260505052602 17 148 3.2 4.8 0.00 0.00 0.00 71 1007.3
20260505052059 17 155 3.2 4.8 0.00 0.00 0.00 71 1007.3
20260505051556 18 127 8.0 9.7 0.00 0.00 0.00 70 1007.0
20260505051054 18 161 3.2 8.0 0.00 0.00 0.00 69 1007.3
20260505050552 18 164 6.4 6.4 0.00 0.00 0.00 69 1007.5
20260505041520 18 152 4.8 8.0 0.00 0.00 0.00 67 1007.8
20260505041017 18 155 3.2 6.4 0.00 0.00 0.00 67 1007.9
20260505040514 18 123 3.2 4.8 0.00 0.00 0.00 67 1008.1
20260505040012 18 138 3.2 4.8 0.00 0.00 0.00 67 1008.3
20260505035507 18 141 3.2 6.4 0.00 0.00 0.00 66 1008.1
20260505035004 18 149 6.4 6.4 0.00 0.00 0.00 66 1008.2
20260505034501 19 143 4.8 9.7 0.00 0.00 0.00 65 1008.2
20260505033958 19 151 4.8 4.8 0.00 0.00 0.00 65 1008.5
20260505033455 19 138 3.2 4.8 0.00 0.00 0.00 65 1008.3
20260505032953 19 159 3.2 4.8 0.00 0.00 0.00 65 1008.3
20260505032450 19 140 3.2 3.2 0.00 0.00 0.00 65 1008.4
20260505031946 19 139 3.2 6.4 0.00 0.00 0.00 64 1008.4
20260505031443 19 147 1.6 4.8 0.00 0.00 0.00 64 1008.5
20260505030940 19 133 4.8 4.8 0.00 0.00 0.00 64 1008.5
20260505030436 19 134 3.2 3.2 0.00 0.00 0.00 64 1008.3
20260505025931 20 176 1.6 3.2 0.00 0.00 0.00 63 1008.5
20260505025429 20 128 3.2 6.4 0.00 0.00 0.00 63 1008.5
20260505024928 20 142 3.2 6.4 0.00 0.00 0.00 63 1008.4
20260505024425 20 149 3.2 3.2 0.00 0.00 0.00 63 1008.4
20260505023922 20 189 1.6 4.8 0.00 0.00 0.00 62 1008.2
20260505023419 20 138 3.2 4.8 0.00 0.00 0.00 62 1008.3
20260505022916 20 160 0.0 4.8 0.00 0.00 0.00 61 1008.4
20260505022413 20 158 3.2 4.8 0.00 0.00 0.00 61 1008.2
20260505021910 20 144 3.2 4.8 0.00 0.00 0.00 61 1008.1
20260505021407 20 166 1.6 4.8 0.00 0.00 0.00 62 1007.9
20260505020903 20 141 3.2 3.2 0.00 0.00 0.00 62 1008.1
20260505020358 20 157 3.2 3.2 0.00 0.00 0.00 62 1007.7
20260505015855 20 156 3.2 6.4 0.00 0.00 0.00 62 1007.8
20260505015352 20 182 3.2 3.2 0.00 0.00 0.00 62 1007.7
20260505014850 20 148 3.2 6.4 0.00 0.00 0.00 61 1007.7
20260505014346 20 159 3.2 4.8 0.00 0.00 0.00 61 1007.5
20260505013843 20 143 4.8 4.8 0.00 0.00 0.00 61 1007.4
20260505013340 20 168 1.6 3.2 0.00 0.00 0.00 61 1007.4
20260505012839 21 161 3.2 3.2 0.00 0.00 0.00 60 1007.4
20260505012336 21 176 3.2 3.2 0.00 0.00 0.00 59 1007.2
20260505011832 21 186 1.6 3.2 0.00 0.00 0.00 59 1007.3
20260505011329 21 174 0.0 1.6 0.00 0.00 0.00 59 1007.2
20260505010825 21 165 1.6 3.2 0.00 0.00 0.00 58 1007.1
20260505010321 21 145 3.2 6.4 0.00 0.00 0.00 58 1006.9
20260505005817 21 154 3.2 4.8 0.00 0.00 0.00 57 1006.9
20260505005315 21 140 3.2 3.2 0.00 0.00 0.00 57 1006.9
20260505004812 21 200 0.0 3.2 0.00 0.00 0.00 57 1006.9
20260505004308 21 154 1.6 4.8 0.00 0.00 0.00 57 1006.8
20260505003806 22 224 0.0 4.8 0.00 0.00 0.00 56 1006.5
20260505003303 22 147 1.6 4.8 0.00 0.00 0.00 56 1006.7
20260505002759 22 182 1.6 3.2 0.00 0.00 0.00 56 1006.8
20260505002256 22 187 3.2 3.2 0.00 0.00 0.00 56 1006.7
20260505001754 22 148 3.2 4.8 0.00 0.00 0.00 55 1006.6
20260505001251 22 178 3.2 3.2 0.00 0.00 0.00 55 1006.6
20260505000748 22 164 3.2 3.2 0.00 0.00 0.00 56 1006.6
20260505000246 22 134 3.2 4.8 0.00 0.00 0.00 55 1006.7
20260504235742 22 148 0.0 4.8 0.00 0.00 0.00 54 1006.6
20260504235238 22 195 0.0 3.2 0.00 0.00 0.00 54 1006.6
20260504234736 22 154 3.2 6.4 0.00 0.00 0.00 52 1006.6
20260504234233 23 147 3.2 6.4 0.00 0.00 0.00 52 1006.5
20260504233729 23 171 1.6 4.8 0.00 0.00 0.00 50 1006.6
20260504233225 23 201 6.4 8.0 0.00 0.00 0.00 50 1006.5
20260504232722 23 171 3.2 8.0 0.00 0.00 0.00 50 1006.6
20260504232219 23 201 4.8 6.4 0.00 0.00 0.00 51 1006.5
20260504231716 23 148 6.4 6.4 0.00 0.00 0.00 51 1006.6
20260504231212 23 138 6.4 8.0 0.00 0.00 0.00 50 1006.7
20260504230708 23 128 6.4 11.3 0.00 0.00 0.00 49 1006.8
20260504230208 23 166 4.8 9.7 0.00 0.00 0.00 50 1006.6
20260504225706 24 133 6.4 17.7 0.00 0.00 0.00 49 1006.6
20260504225201 24 139 6.4 8.0 0.00 0.00 0.00 49 1006.5
20260504224659 24 129 8.0 11.3 0.00 0.00 0.00 48 1006.7
20260504224156 25 218 8.0 12.9 0.00 0.00 0.00 47 1006.7
20260504223653 25 115 12.9 14.5 0.00 0.00 0.00 47 1006.7
20260504223148 25 158 6.4 19.3 0.00 0.00 0.00 48 1006.8
20260504222645 25 149 4.8 9.7 0.00 0.00 0.00 47 1006.7
20260504222142 25 138 3.2 8.0 0.00 0.00 0.00 47 1006.6
20260504221640 25 274 3.2 14.5 0.00 0.00 0.00 45 1006.7
20260504221136 26 128 4.8 9.7 0.00 0.00 0.00 45 1006.8
20260504220632 25 164 3.2 8.0 0.00 0.00 0.00 45 1006.8
20260504220131 25 162 8.0 14.5 0.00 0.00 0.00 44 1006.8
20260504215626 26 229 6.4 8.0 0.00 0.00 0.00 46 1006.8
20260504215124 26 162 6.4 8.0 0.00 0.00 0.00 45 1006.8
20260504214620 25 209 3.2 8.0 0.00 0.00 0.00 46 1006.8
20260504214116 26 264 4.8 12.9 0.00 0.00 0.00 47 1007.1
20260504213613 26 158 6.4 12.9 0.00 0.00 0.00 46 1007.1
20260504213110 26 161 1.6 12.9 0.00 0.00 0.00 44 1007.0
20260504212606 26 105 4.8 9.7 0.00 0.00 0.00 44 1006.9
20260504212103 26 136 6.4 11.3 0.00 0.00 0.00 44 1007.1
20260504211600 26 138 9.7 17.7 0.00 0.00 0.00 44 1007.2
20260504211057 26 223 4.8 14.5 0.00 0.00 0.00 44 1007.2
20260504210554 26 158 9.7 14.5 0.00 0.00 0.00 43 1007.2
20260504210050 26 241 3.2 9.7 0.00 0.00 0.00 43 1007.4
20260504205548 26 194 11.3 16.1 0.00 0.00 0.00 43 1007.3
20260504205046 26 207 4.8 9.7 0.00 0.00 0.00 46 1007.5
20260504204544 26 186 8.0 9.7 0.00 0.00 0.00 44 1007.7
20260504204043 26 182 4.8 12.9 0.00 0.00 0.00 43 1007.6
20260504203540 27 284 4.8 11.3 0.00 0.00 0.00 44 1007.5
20260504203038 26 173 3.2 9.7 0.00 0.00 0.00 46 1007.6
20260504202533 26 141 11.3 12.9 0.00 0.00 0.00 42 1007.8
20260504202030 26 186 11.3 17.7 0.00 0.00 0.00 45 1007.6
20260504201527 26 257 6.4 24.1 0.00 0.00 0.00 44 1007.9
20260504201025 26 237 4.8 16.1 0.00 0.00 0.00 44 1007.9
20260504200521 26 202 4.8 11.3 0.00 0.00 0.00 46 1007.9
20260504200018 26 149 11.3 17.7 0.00 0.00 0.00 46 1007.7
20260504195514 26 177 4.8 9.7 0.00 0.00 0.00 44 1007.8
20260504195011 26 204 9.7 20.9 0.00 0.00 0.00 45 1007.9
20260504194507 26 188 4.8 17.7 0.00 0.00 0.00 45 1007.8
20260504194002 26 162 6.4 12.9 0.00 0.00 0.00 46 1008.1
20260504193500 26 228 8.0 16.1 0.00 0.00 0.00 47 1008.1
20260504192959 26 176 11.3 14.5 0.00 0.00 0.00 45 1008.3
20260504192456 26 254 6.4 11.3 0.00 0.00 0.00 44 1008.4
20260504191954 26 99 8.0 16.1 0.00 0.00 0.00 45 1008.3
20260504191452 26 230 9.7 11.3 0.00 0.00 0.00 45 1008.4
20260504190947 26 165 4.8 11.3 0.00 0.00 0.00 46 1008.4
20260504190443 26 200 12.9 12.9 0.00 0.00 0.00 45 1008.3
20260504185940 25 223 6.4 12.9 0.00 0.00 0.00 46 1008.3
20260504185437 25 217 6.4 16.1 0.00 0.00 0.00 44 1008.4
20260504184933 26 185 3.2 9.7 0.00 0.00 0.00 45 1008.3
20260504184429 26 198 6.4 9.7 0.00 0.00 0.00 47 1008.5
20260504183925 25 228 8.0 22.5 0.00 0.00 0.00 45 1008.6
20260504183422 26 148 17.7 19.3 0.00 0.00 0.00 45 1008.5
20260504182920 26 211 3.2 9.7 0.00 0.00 0.00 45 1008.6
20260504182417 26 188 8.0 9.7 0.00 0.00 0.00 44 1008.5
20260504181914 25 226 4.8 9.7 0.00 0.00 0.00 45 1008.5
20260504181411 25 230 4.8 12.9 0.00 0.00 0.00 44 1008.5
20260504180910 25 201 9.7 11.3 0.00 0.00 0.00 44 1008.7
20260504180408 25 136 6.4 17.7 0.00 0.00 0.00 46 1008.8
20260504175906 25 240 8.0 14.5 0.00 0.00 0.00 47 1008.8
20260504175402 25 198 6.4 14.5 0.00 0.00 0.00 47 1008.9
20260504174900 25 179 8.0 12.9 0.00 0.00 0.00 46 1008.9
20260504174358 25 209 19.3 20.9 0.00 0.00 0.00 45 1008.7
20260504173855 25 180 9.7 12.9 0.00 0.00 0.00 47 1008.8
20260504173351 24 264 3.2 14.5 0.00 0.00 0.00 46 1008.8
20260504172848 25 153 11.3 14.5 0.00 0.00 0.00 46 1009.0
20260504172345 25 212 11.3 14.5 0.00 0.00 0.00 45 1009.2
20260504171841 25 178 8.0 9.7 0.00 0.00 0.00 46 1009.1
20260504171338 25 141 20.9 20.9 0.00 0.00 0.00 44 1009.0
20260504170835 25 115 6.4 17.7 0.00 0.00 0.00 45 1009.1
20260504170332 25 208 6.4 11.3 0.00 0.00 0.00 49 1009.1
20260504160250 23 139 3.2 8.0 0.00 0.00 0.00 48 1009.7